| time (UTC) | temp F | wind direction | speed knots | gust knots | rain 1hr in | rain 24hr in | rain mn in | humidity % | barometer mb |
| 20260505084156 | 34 | 217 | 0.9 | 0.9 | 0.00 | 0.00 | 0.00 | 66 | 1018.2 |
| 20260505083653 | 34 | 270 | 0.0 | 0.0 | 0.00 | 0.00 | 0.00 | 65 | 1018.5 |
| 20260505083150 | 34 | 3 | 0.9 | 0.9 | 0.00 | 0.00 | 0.00 | 64 | 1018.2 |
| 20260505082646 | 35 | 20 | 0.0 | 0.9 | 0.00 | 0.00 | 0.00 | 63 | 1018.5 |
| 20260505082143 | 35 | 55 | 0.9 | 0.9 | 0.00 | 0.00 | 0.00 | 63 | 1018.4 |
| 20260505081639 | 34 | 288 | 0.0 | 0.0 | 0.00 | 0.00 | 0.00 | 63 | 1018.6 |
| 20260505081137 | 35 | 272 | 0.0 | 0.0 | 0.00 | 0.00 | 0.00 | 62 | 1018.2 |
| 20260505080633 | 35 | 59 | 0.9 | 0.9 | 0.00 | 0.00 | 0.00 | 61 | 1018.2 |
| 20260505080129 | 36 | 62 | 0.0 | 0.9 | 0.00 | 0.00 | 0.00 | 59 | 1018.4 |
| 20260505075625 | 37 | 134 | 0.0 | 0.0 | 0.00 | 0.00 | 0.00 | 58 | 1018.4 |
| 20260505075122 | 37 | 144 | 0.9 | 0.9 | 0.00 | 0.00 | 0.00 | 58 | 1018.5 |
| 20260505074619 | 37 | 179 | 0.9 | 1.7 | 0.00 | 0.00 | 0.00 | 58 | 1018.4 |
| 20260505074116 | 36 | 177 | 0.9 | 1.7 | 0.00 | 0.00 | 0.00 | 59 | 1018.1 |
| 20260505073614 | 35 | 285 | 0.0 | 0.0 | 0.00 | 0.00 | 0.00 | 62 | 1018.2 |
| 20260505073112 | 36 | 286 | 0.0 | 0.0 | 0.00 | 0.00 | 0.00 | 59 | 1018.4 |
| 20260505072607 | 37 | 286 | 0.0 | 0.9 | 0.00 | 0.00 | 0.00 | 57 | 1018.2 |
| 20260505072104 | 38 | 115 | 0.0 | 0.9 | 0.00 | 0.00 | 0.00 | 55 | 1018.4 |
| 20260505071559 | 38 | 120 | 0.0 | 0.9 | 0.00 | 0.00 | 0.00 | 55 | 1018.5 |
| 20260505071058 | 39 | 164 | 0.9 | 0.9 | 0.00 | 0.00 | 0.00 | 53 | 1018.2 |
| 20260505070555 | 39 | 143 | 0.0 | 0.9 | 0.00 | 0.00 | 0.00 | 54 | 1018.5 |
| 20260505070050 | 39 | 152 | 0.9 | 0.9 | 0.00 | 0.00 | 0.00 | 53 | 1018.5 |
| 20260505065546 | 39 | 149 | 0.0 | 0.9 | 0.00 | 0.00 | 0.00 | 53 | 1018.4 |
| 20260505065044 | 40 | 235 | 0.9 | 1.7 | 0.00 | 0.00 | 0.00 | 52 | 1018.4 |
| 20260505064540 | 39 | 358 | 0.0 | 0.0 | 0.00 | 0.00 | 0.00 | 52 | 1018.4 |
| 20260505064039 | 40 | 354 | 0.0 | 0.0 | 0.00 | 0.00 | 0.00 | 50 | 1018.2 |
| 20260505063536 | 41 | 353 | 0.0 | 0.9 | 0.00 | 0.00 | 0.00 | 49 | 1018.4 |
| 20260505063031 | 41 | 110 | 0.9 | 0.9 | 0.00 | 0.00 | 0.00 | 49 | 1018.2 |
| 20260505062528 | 41 | 123 | 0.0 | 0.9 | 0.00 | 0.00 | 0.00 | 49 | 1018.4 |
| 20260505062026 | 41 | 114 | 0.9 | 0.9 | 0.00 | 0.00 | 0.00 | 50 | 1018.2 |
| 20260505061523 | 40 | 117 | 0.9 | 0.9 | 0.00 | 0.00 | 0.00 | 51 | 1018.5 |
| 20260505061021 | 40 | 105 | 0.0 | 0.9 | 0.00 | 0.00 | 0.00 | 52 | 1018.1 |
| 20260505060518 | 41 | 185 | 0.9 | 0.9 | 0.00 | 0.00 | 0.00 | 51 | 1018.5 |
| 20260505060015 | 41 | 107 | 0.9 | 0.9 | 0.00 | 0.00 | 0.00 | 52 | 1018.5 |
| 20260505055510 | 41 | 167 | 0.9 | 0.9 | 0.00 | 0.00 | 0.00 | 53 | 1018.2 |
| 20260505055007 | 42 | 195 | 0.9 | 1.7 | 0.00 | 0.00 | 0.00 | 52 | 1018.4 |
| 20260505054504 | 42 | 226 | 0.9 | 0.9 | 0.00 | 0.00 | 0.00 | 49 | 1018.2 |
| 20260505054002 | 42 | 195 | 0.9 | 1.7 | 0.00 | 0.00 | 0.00 | 50 | 1018.0 |
| 20260505053459 | 42 | 154 | 0.9 | 0.9 | 0.00 | 0.00 | 0.00 | 51 | 1018.4 |
| 20260505052955 | 42 | 130 | 0.9 | 0.9 | 0.00 | 0.00 | 0.00 | 51 | 1017.9 |
| 20260505052453 | 42 | 146 | 0.9 | 1.7 | 0.00 | 0.00 | 0.00 | 52 | 1018.1 |
| 20260505051950 | 42 | 190 | 1.7 | 1.7 | 0.00 | 0.00 | 0.00 | 50 | 1018.2 |
| 20260505051447 | 42 | 322 | 0.0 | 0.0 | 0.00 | 0.00 | 0.00 | 50 | 1018.4 |
| 20260505050945 | 42 | 334 | 0.0 | 0.9 | 0.00 | 0.00 | 0.00 | 49 | 1018.4 |
| 20260505050443 | 43 | 301 | 0.9 | 1.7 | 0.00 | 0.00 | 0.00 | 50 | 1018.4 |
| 20260505041411 | 45 | 317 | 1.7 | 2.6 | 0.00 | 0.00 | 0.00 | 44 | 1018.2 |
| 20260505040908 | 45 | 317 | 0.0 | 0.9 | 0.00 | 0.00 | 0.00 | 46 | 1018.2 |
| 20260505040405 | 46 | 305 | 0.9 | 1.7 | 0.00 | 0.00 | 0.00 | 45 | 1018.1 |
| 20260505035902 | 46 | 4 | 0.9 | 0.9 | 0.00 | 0.00 | 0.00 | 43 | 1018.0 |
| 20260505035358 | 46 | 2 | 0.9 | 0.9 | 0.00 | 0.00 | 0.00 | 44 | 1017.9 |
| 20260505034855 | 46 | 26 | 0.9 | 1.7 | 0.00 | 0.00 | 0.00 | 44 | 1017.9 |
| 20260505034351 | 46 | 18 | 0.9 | 1.7 | 0.00 | 0.00 | 0.00 | 45 | 1018.1 |
| 20260505033849 | 46 | 325 | 0.9 | 0.9 | 0.00 | 0.00 | 0.00 | 43 | 1017.9 |
| 20260505033345 | 47 | 36 | 1.7 | 2.6 | 0.00 | 0.00 | 0.00 | 42 | 1017.9 |
| 20260505032844 | 46 | 14 | 0.9 | 2.6 | 0.00 | 0.00 | 0.00 | 43 | 1017.8 |
| 20260505032340 | 47 | 329 | 1.7 | 4.3 | 0.00 | 0.00 | 0.00 | 42 | 1017.6 |
| 20260505031837 | 47 | 359 | 2.6 | 2.6 | 0.00 | 0.00 | 0.00 | 41 | 1017.8 |
| 20260505031333 | 47 | 351 | 1.7 | 5.2 | 0.00 | 0.00 | 0.00 | 40 | 1017.7 |
| 20260505030831 | 48 | 15 | 4.3 | 5.2 | 0.00 | 0.00 | 0.00 | 39 | 1017.6 |
| 20260505030327 | 48 | 25 | 3.5 | 6.1 | 0.00 | 0.00 | 0.00 | 40 | 1017.5 |
| 20260505025822 | 48 | 44 | 1.7 | 1.7 | 0.00 | 0.00 | 0.00 | 40 | 1017.6 |
| 20260505025320 | 48 | 356 | 1.7 | 1.7 | 0.00 | 0.00 | 0.00 | 40 | 1017.5 |
| 20260505024819 | 49 | 8 | 2.6 | 6.1 | 0.00 | 0.00 | 0.00 | 38 | 1017.4 |
| 20260505024316 | 48 | 29 | 2.6 | 4.3 | 0.00 | 0.00 | 0.00 | 40 | 1017.4 |
| 20260505023813 | 49 | 12 | 2.6 | 4.3 | 0.00 | 0.00 | 0.00 | 38 | 1017.4 |
| 20260505023310 | 49 | 31 | 2.6 | 7.0 | 0.00 | 0.00 | 0.00 | 38 | 1017.0 |
| 20260505022807 | 49 | 16 | 2.6 | 7.8 | 0.00 | 0.00 | 0.00 | 38 | 1017.0 |
| 20260505022304 | 49 | 10 | 4.3 | 7.0 | 0.00 | 0.00 | 0.00 | 38 | 1017.0 |
| 20260505021801 | 50 | 36 | 3.5 | 7.0 | 0.00 | 0.00 | 0.00 | 39 | 1017.1 |
| 20260505021258 | 50 | 322 | 0.9 | 4.3 | 0.00 | 0.00 | 0.00 | 41 | 1017.1 |
| 20260505020753 | 50 | 72 | 2.6 | 7.0 | 0.00 | 0.00 | 0.00 | 38 | 1017.1 |
| 20260505020248 | 50 | 22 | 1.7 | 6.1 | 0.00 | 0.00 | 0.00 | 39 | 1017.0 |
| 20260505015746 | 50 | 46 | 4.3 | 7.8 | 0.00 | 0.00 | 0.00 | 39 | 1017.0 |
| 20260505015243 | 50 | 37 | 4.3 | 7.0 | 0.00 | 0.00 | 0.00 | 39 | 1017.0 |
| 20260505014740 | 50 | 336 | 4.3 | 9.6 | 0.00 | 0.00 | 0.00 | 40 | 1017.0 |
| 20260505014238 | 51 | 18 | 4.3 | 11.3 | 0.00 | 0.00 | 0.00 | 40 | 1017.0 |
| 20260505013734 | 51 | 3 | 2.6 | 7.0 | 0.00 | 0.00 | 0.00 | 40 | 1017.1 |
| 20260505013231 | 51 | 30 | 4.3 | 7.0 | 0.00 | 0.00 | 0.00 | 42 | 1016.9 |
| 20260505012729 | 51 | 12 | 3.5 | 9.6 | 0.00 | 0.00 | 0.00 | 42 | 1017.1 |
| 20260505012226 | 51 | 19 | 4.3 | 6.1 | 0.00 | 0.00 | 0.00 | 44 | 1017.0 |
| 20260505011722 | 51 | 8 | 4.3 | 11.3 | 0.00 | 0.00 | 0.00 | 44 | 1017.1 |
| 20260505011220 | 51 | 335 | 6.1 | 11.3 | 0.00 | 0.00 | 0.00 | 44 | 1016.9 |
| 20260505010715 | 52 | 9 | 4.3 | 9.6 | 0.00 | 0.00 | 0.00 | 43 | 1017.1 |
| 20260505010212 | 52 | 66 | 4.3 | 8.7 | 0.00 | 0.00 | 0.00 | 43 | 1017.2 |
| 20260505005708 | 52 | 25 | 2.6 | 9.6 | 0.00 | 0.00 | 0.00 | 43 | 1017.2 |
| 20260505005205 | 52 | 354 | 5.2 | 7.8 | 0.00 | 0.00 | 0.00 | 43 | 1017.1 |
| 20260505004702 | 52 | 13 | 6.1 | 8.7 | 0.00 | 0.00 | 0.00 | 44 | 1016.9 |
| 20260505004159 | 53 | 27 | 6.1 | 7.8 | 0.00 | 0.00 | 0.00 | 42 | 1017.1 |
| 20260505003656 | 52 | 28 | 3.5 | 7.8 | 0.00 | 0.00 | 0.00 | 43 | 1016.9 |
| 20260505003153 | 53 | 43 | 7.0 | 11.3 | 0.00 | 0.00 | 0.00 | 42 | 1017.2 |
| 20260505002649 | 53 | 23 | 4.3 | 9.6 | 0.00 | 0.00 | 0.00 | 42 | 1016.9 |
| 20260505002148 | 53 | 13 | 7.0 | 12.2 | 0.00 | 0.00 | 0.00 | 42 | 1016.8 |
| 20260505001644 | 53 | 359 | 2.6 | 6.1 | 0.00 | 0.00 | 0.00 | 42 | 1016.9 |
| 20260505001142 | 53 | 109 | 6.1 | 9.6 | 0.00 | 0.00 | 0.00 | 41 | 1016.7 |
| 20260505000638 | 53 | 20 | 3.5 | 8.7 | 0.00 | 0.00 | 0.00 | 42 | 1016.9 |
| 20260505000137 | 53 | 359 | 5.2 | 11.3 | 0.00 | 0.00 | 0.00 | 41 | 1016.6 |
| 20260504235633 | 54 | 66 | 8.7 | 13.9 | 0.00 | 0.00 | 0.00 | 41 | 1016.9 |
| 20260504235129 | 55 | 98 | 3.5 | 13.0 | 0.00 | 0.00 | 0.00 | 40 | 1016.5 |
| 20260504234626 | 55 | 358 | 6.1 | 13.0 | 0.00 | 0.00 | 0.00 | 40 | 1016.5 |
| 20260504234124 | 55 | 5 | 7.0 | 11.3 | 0.00 | 0.00 | 0.00 | 41 | 1016.6 |
| 20260504233619 | 55 | 329 | 4.3 | 13.0 | 0.00 | 0.00 | 0.00 | 40 | 1016.6 |
| 20260504233115 | 55 | 322 | 2.6 | 8.7 | 0.00 | 0.00 | 0.00 | 40 | 1016.3 |
| 20260504232614 | 55 | 328 | 7.8 | 12.2 | 0.00 | 0.00 | 0.00 | 39 | 1016.2 |
| 20260504232111 | 56 | 65 | 7.8 | 11.3 | 0.00 | 0.00 | 0.00 | 38 | 1016.3 |
| 20260504231607 | 55 | 322 | 7.0 | 9.6 | 0.00 | 0.00 | 0.00 | 37 | 1016.1 |
| 20260504231103 | 55 | 347 | 12.2 | 14.8 | 0.00 | 0.00 | 0.00 | 37 | 1016.2 |
| 20260504230559 | 56 | 25 | 10.4 | 14.8 | 0.00 | 0.00 | 0.00 | 38 | 1016.3 |
| 20260504230059 | 57 | 9 | 8.7 | 11.3 | 0.00 | 0.00 | 0.00 | 37 | 1016.1 |
| 20260504225555 | 58 | 48 | 5.2 | 9.6 | 0.00 | 0.00 | 0.00 | 37 | 1016.1 |
| 20260504225052 | 57 | 9 | 10.4 | 13.9 | 0.00 | 0.00 | 0.00 | 36 | 1015.9 |
| 20260504224549 | 58 | 11 | 3.5 | 9.6 | 0.00 | 0.00 | 0.00 | 36 | 1016.0 |
| 20260504224046 | 58 | 299 | 7.0 | 13.0 | 0.00 | 0.00 | 0.00 | 36 | 1015.8 |
| 20260504223543 | 58 | 19 | 7.8 | 12.2 | 0.00 | 0.00 | 0.00 | 34 | 1016.0 |
| 20260504223038 | 56 | 2 | 7.8 | 11.3 | 0.00 | 0.00 | 0.00 | 35 | 1015.8 |
| 20260504222536 | 57 | 10 | 6.1 | 7.8 | 0.00 | 0.00 | 0.00 | 35 | 1016.0 |
| 20260504222033 | 58 | 22 | 6.1 | 13.0 | 0.00 | 0.00 | 0.00 | 34 | 1015.6 |
| 20260504221530 | 57 | 330 | 3.5 | 7.0 | 0.00 | 0.00 | 0.00 | 35 | 1015.8 |
| 20260504221027 | 57 | 359 | 5.2 | 8.7 | 0.00 | 0.00 | 0.00 | 32 | 1015.9 |
| 20260504220523 | 57 | 359 | 7.0 | 13.0 | 0.00 | 0.00 | 0.00 | 33 | 1016.1 |
| 20260504220021 | 57 | 4 | 6.1 | 9.6 | 0.00 | 0.00 | 0.00 | 32 | 1015.9 |
| 20260504215517 | 58 | 21 | 3.5 | 7.0 | 0.00 | 0.00 | 0.00 | 32 | 1015.9 |
| 20260504215015 | 57 | 296 | 2.6 | 7.0 | 0.00 | 0.00 | 0.00 | 33 | 1016.0 |
| 20260504214510 | 57 | 23 | 0.9 | 2.6 | 0.00 | 0.00 | 0.00 | 32 | 1015.9 |
| 20260504214006 | 57 | 6 | 3.5 | 7.8 | 0.00 | 0.00 | 0.00 | 31 | 1016.0 |
| 20260504213503 | 58 | 337 | 3.5 | 4.3 | 0.00 | 0.00 | 0.00 | 34 | 1016.3 |
| 20260504213001 | 59 | 12 | 7.0 | 8.7 | 0.00 | 0.00 | 0.00 | 30 | 1016.1 |
| 20260504212456 | 57 | 246 | 4.3 | 5.2 | 0.00 | 0.00 | 0.00 | 33 | 1016.2 |
| 20260504211954 | 57 | 221 | 2.6 | 2.6 | 0.00 | 0.00 | 0.00 | 30 | 1016.2 |
| 20260504211450 | 56 | 310 | 5.2 | 6.1 | 0.00 | 0.00 | 0.00 | 33 | 1016.5 |
| 20260504210948 | 57 | 288 | 1.7 | 6.1 | 0.00 | 0.00 | 0.00 | 31 | 1016.5 |
| 20260504210444 | 56 | 13 | 5.2 | 8.7 | 0.00 | 0.00 | 0.00 | 32 | 1016.5 |
| 20260504205941 | 56 | 1 | 4.3 | 5.2 | 0.00 | 0.00 | 0.00 | 33 | 1016.5 |
| 20260504205439 | 56 | 12 | 4.3 | 7.0 | 0.00 | 0.00 | 0.00 | 32 | 1016.7 |
| 20260504204937 | 57 | 352 | 5.2 | 7.8 | 0.00 | 0.00 | 0.00 | 30 | 1016.3 |
| 20260504204435 | 57 | 24 | 2.6 | 11.3 | 0.00 | 0.00 | 0.00 | 30 | 1016.7 |
| 20260504203934 | 57 | 59 | 5.2 | 13.0 | 0.00 | 0.00 | 0.00 | 32 | 1016.7 |
| 20260504203431 | 56 | 31 | 4.3 | 7.0 | 0.00 | 0.00 | 0.00 | 32 | 1016.7 |
| 20260504202927 | 57 | 305 | 4.3 | 5.2 | 0.00 | 0.00 | 0.00 | 31 | 1016.9 |
| 20260504202424 | 57 | 72 | 3.5 | 5.2 | 0.00 | 0.00 | 0.00 | 32 | 1016.7 |
| 20260504201920 | 56 | 38 | 1.7 | 4.3 | 0.00 | 0.00 | 0.00 | 35 | 1016.9 |
| 20260504201418 | 55 | 164 | 3.5 | 6.1 | 0.00 | 0.00 | 0.00 | 37 | 1016.8 |
| 20260504200915 | 55 | 59 | 4.3 | 7.0 | 0.00 | 0.00 | 0.00 | 33 | 1016.6 |
| 20260504200412 | 56 | 77 | 7.0 | 8.7 | 0.00 | 0.00 | 0.00 | 33 | 1016.9 |
| 20260504195909 | 56 | 322 | 0.9 | 1.7 | 0.00 | 0.00 | 0.00 | 32 | 1016.6 |
| 20260504195404 | 56 | 78 | 2.6 | 5.2 | 0.00 | 0.00 | 0.00 | 33 | 1016.8 |
| 20260504194901 | 55 | 19 | 1.7 | 7.8 | 0.00 | 0.00 | 0.00 | 33 | 1017.0 |
| 20260504194357 | 55 | 325 | 3.5 | 4.3 | 0.00 | 0.00 | 0.00 | 36 | 1017.0 |
| 20260504193853 | 55 | 62 | 1.7 | 5.2 | 0.00 | 0.00 | 0.00 | 35 | 1017.0 |
| 20260504193350 | 55 | 338 | 0.0 | 2.6 | 0.00 | 0.00 | 0.00 | 38 | 1017.0 |
| 20260504192849 | 55 | 327 | 1.7 | 5.2 | 0.00 | 0.00 | 0.00 | 36 | 1016.9 |
| 20260504192347 | 54 | 163 | 1.7 | 4.3 | 0.00 | 0.00 | 0.00 | 37 | 1016.9 |
| 20260504191845 | 54 | 77 | 2.6 | 7.0 | 0.00 | 0.00 | 0.00 | 37 | 1016.9 |
| 20260504191343 | 54 | 105 | 2.6 | 7.0 | 0.00 | 0.00 | 0.00 | 37 | 1017.1 |
| 20260504190838 | 54 | 70 | 3.5 | 5.2 | 0.00 | 0.00 | 0.00 | 38 | 1016.9 |
| 20260504190334 | 54 | 71 | 7.0 | 7.8 | 0.00 | 0.00 | 0.00 | 38 | 1017.2 |
| 20260504185831 | 53 | 65 | 3.5 | 5.2 | 0.00 | 0.00 | 0.00 | 37 | 1017.2 |
| 20260504185327 | 53 | 73 | 7.0 | 8.7 | 0.00 | 0.00 | 0.00 | 36 | 1017.1 |
| 20260504184824 | 53 | 69 | 5.2 | 8.7 | 0.00 | 0.00 | 0.00 | 37 | 1017.2 |
| 20260504184320 | 53 | 61 | 5.2 | 11.3 | 0.00 | 0.00 | 0.00 | 39 | 1016.9 |
| 20260504183815 | 53 | 67 | 4.3 | 7.8 | 0.00 | 0.00 | 0.00 | 41 | 1017.4 |
| 20260504183313 | 53 | 75 | 5.2 | 9.6 | 0.00 | 0.00 | 0.00 | 40 | 1017.5 |
| 20260504182810 | 53 | 65 | 5.2 | 7.0 | 0.00 | 0.00 | 0.00 | 40 | 1017.2 |
| 20260504182308 | 53 | 121 | 4.3 | 6.1 | 0.00 | 0.00 | 0.00 | 39 | 1017.1 |
| 20260504181805 | 53 | 51 | 2.6 | 6.1 | 0.00 | 0.00 | 0.00 | 41 | 1017.2 |
| 20260504181302 | 54 | 350 | 2.6 | 5.2 | 0.00 | 0.00 | 0.00 | 40 | 1017.2 |
| 20260504180801 | 54 | 33 | 2.6 | 2.6 | 0.00 | 0.00 | 0.00 | 39 | 1017.1 |
| 20260504180259 | 54 | 333 | 2.6 | 4.3 | 0.00 | 0.00 | 0.00 | 41 | 1017.2 |
| 20260504175757 | 53 | 306 | 2.6 | 2.6 | 0.00 | 0.00 | 0.00 | 40 | 1017.2 |
| 20260504175253 | 54 | 15 | 2.6 | 5.2 | 0.00 | 0.00 | 0.00 | 40 | 1017.4 |
| 20260504174751 | 54 | 1 | 3.5 | 5.2 | 0.00 | 0.00 | 0.00 | 40 | 1017.2 |
| 20260504174249 | 54 | 13 | 3.5 | 4.3 | 0.00 | 0.00 | 0.00 | 40 | 1017.1 |
| 20260504173745 | 54 | 347 | 2.6 | 5.2 | 0.00 | 0.00 | 0.00 | 41 | 1017.5 |
| 20260504173242 | 54 | 4 | 4.3 | 5.2 | 0.00 | 0.00 | 0.00 | 39 | 1017.1 |
| 20260504172739 | 54 | 324 | 0.9 | 5.2 | 0.00 | 0.00 | 0.00 | 40 | 1017.2 |
| 20260504172236 | 53 | 33 | 0.0 | 2.6 | 0.00 | 0.00 | 0.00 | 41 | 1017.1 |
| 20260504171732 | 54 | 123 | 3.5 | 6.1 | 0.00 | 0.00 | 0.00 | 40 | 1017.1 |
| 20260504171229 | 54 | 119 | 3.5 | 5.2 | 0.00 | 0.00 | 0.00 | 39 | 1017.5 |
| 20260504170726 | 55 | 71 | 4.3 | 6.1 | 0.00 | 0.00 | 0.00 | 40 | 1017.4 |
| 20260504170223 | 54 | 0 | 2.6 | 5.2 | 0.00 | 0.00 | 0.00 | 42 | 1017.4 |
| 20260504160142 | 52 | 287 | 0.0 | 2.6 | 0.00 | 0.00 | 0.00 | 48 | 1017.8 |
| 20260504151109 | 50 | 327 | 2.6 | 5.2 | 0.00 | 0.00 | 0.00 | 47 | 1018.2 |
| 20260504150607 | 49 | 344 | 2.6 | 5.2 | 0.00 | 0.00 | 0.00 | 48 | 1018.0 |
| 20260504150104 | 50 | 286 | 4.3 | 5.2 | 0.00 | 0.00 | 0.00 | 49 | 1018.0 |
| 20260504141032 | 47 | 264 | 0.0 | 1.7 | 0.00 | 0.00 | 0.00 | 58 | 1018.1 |
| 20260504140529 | 46 | 261 | 2.6 | 2.6 | 0.00 | 0.00 | 0.00 | 56 | 1018.2 |
| 20260504130453 | 42 | 191 | 3.5 | 4.3 | 0.00 | 0.00 | 0.00 | 62 | 1017.5 |
| 20260504110340 | 45 | 296 | 0.9 | 1.7 | 0.00 | 0.00 | 0.00 | 52 | 1016.9 |
| 20260504100257 | 46 | 324 | 1.7 | 1.7 | 0.00 | 0.00 | 0.00 | 48 | 1016.5 |